G7NPW-1 Weather Reports


time (UTC)temp
F
wind
direction
speed
knots
gust
knots
rain 1hr
in
rain 24hr
in
rain mn
in
humidity
%
barometer
mb
20260505210004 48 40 10.4 10.4 0.00 0.00 0.00 70 1014.9
20260505204007 50 40 7.8 7.8 0.00 0.00 0.00 76 1013.9
20260505203504 50 40 7.8 7.8 0.00 0.00 0.00 76 1013.9
20260505202505 50 40 7.8 7.8 0.00 0.00 0.00 76 1013.9
20260505202007 50 40 7.8 7.8 0.00 0.00 0.00 76 1013.9
20260505201007 50 40 7.8 7.8 0.00 0.00 0.00 76 1013.9
20260505200004 50 40 7.8 10.4 0.00 0.00 0.00 76 1013.9
20260505195505 52 40 10.4 10.4 0.00 0.00 0.00 71 1013.9
20260505194504 52 40 10.4 10.4 0.00 0.00 0.00 71 1013.9
20260505194007 52 40 10.4 10.4 0.00 0.00 0.00 71 1013.9
20260505193504 52 40 10.4 10.4 0.00 0.00 0.00 71 1013.9
20260505193009 52 40 10.4 10.4 0.00 0.00 0.00 71 1013.9
20260505192007 52 40 10.4 10.4 0.00 0.00 0.00 71 1013.9
20260505190004 52 40 10.4 10.4 0.00 0.00 0.00 71 1013.9
20260505182503 54 20 7.0 7.0 0.00 0.00 0.00 57 1012.9
20260505175007 55 20 7.0 7.0 0.00 0.00 0.00 54 1012.9
20260505173504 55 20 7.0 7.0 0.00 0.00 0.00 54 1012.9
20260505172008 55 20 7.0 7.0 0.00 0.00 0.00 54 1012.9
20260505171504 55 20 7.0 7.0 0.00 0.00 0.00 54 1012.9
20260505171008 55 20 7.0 7.0 0.00 0.00 0.00 54 1012.9
20260505165007 55 340 7.0 7.0 0.00 0.00 0.00 54 1012.9
20260505164007 55 340 7.0 7.0 0.00 0.00 0.00 54 1012.9
20260505163009 55 340 7.0 7.0 0.00 0.00 0.00 54 1012.9
20260505161504 55 340 7.0 7.0 0.00 0.00 0.00 54 1012.9
20260505161007 55 340 7.0 7.0 0.00 0.00 0.00 54 1012.9
20260505123504 55 350 5.2 5.2 0.00 0.00 0.00 54 1012.9
20260505122007 55 350 5.2 5.2 0.00 0.00 0.00 54 1012.9
20260505115007 54 340 7.0 7.0 0.00 0.00 0.00 62 1013.9
20260505114008 54 340 7.0 7.0 0.00 0.00 0.00 62 1013.9
20260505113007 54 340 7.0 7.0 0.00 0.00 0.00 62 1013.9
20260505111007 54 340 7.0 7.0 0.00 0.00 0.00 62 1013.9
20260505102007 54 30 6.1 6.1 0.00 0.00 0.00 62 1013.9
20260505095007 54 320 6.1 6.1 0.00 0.00 0.00 66 1013.9
20260505094504 54 320 6.1 6.1 0.00 0.00 0.00 66 1013.9
20260505091008 54 320 6.1 6.1 0.00 0.00 0.00 66 1013.9
20260505090504 54 320 6.1 6.1 0.00 0.00 0.00 66 1013.9
20260505083007 50 310 5.2 5.2 0.00 0.00 0.00 76 1013.9
20260505082504 50 310 5.2 5.2 0.00 0.00 0.00 76 1013.9
20260505081503 50 310 5.2 5.2 0.00 0.00 0.00 76 1013.9
20260505080004 50 310 5.2 5.2 0.00 0.00 0.00 76 1013.9
20260505075504 46 300 5.2 5.2 0.00 0.00 0.00 87 1013.9
20260505074008 46 300 5.2 5.2 0.00 0.00 0.00 87 1013.9
20260505072504 46 300 5.2 5.2 0.00 0.00 0.00 87 1013.9
20260505071504 46 300 5.2 5.2 0.00 0.00 0.00 87 1013.9
20260505063504 50 0 0.9 0.9 0.00 0.00 0.00 87 1015.9
20260505063007 50 0 0.9 0.9 0.00 0.00 0.00 87 1015.9
20260505062504 50 0 0.9 0.9 0.00 0.00 0.00 87 1015.9
20260505060503 50 0 0.9 0.9 0.00 0.00 0.00 87 1015.9